{"data":{"norad_id":45435,"intl_designator":"2020-020M","name":"ONEWEB-0083","alt_names":[],"object_type":"PAYLOAD","status":"ACTIVE","operator":null,"country":"UK","launch_date":"2020-03-21","launch_site_code":"TYMSC","launch_vehicle":null,"mission":null,"orbit_class":"UNKNOWN","rcs_meters":null,"size_class":null,"mass_kg":null,"dimensions":null,"purposes":["comms"],"wikipedia_slug":null,"has_3d_model":false,"image_url":null,"decayed_at":null,"tle_current":{"epoch":"2026-09-19T23:14:36.530304Z","epoch_age_seconds":64258,"freshness":"FRESH","line1":"1 45435U 20020M   26262.96847836  .00000413  00000+0  11282-2 0  9997","line2":"2 45435  87.8974   2.2248 0001802  99.1309 261.0022 13.11415148315096","mean_motion":13.11415148,"eccentricity":0.0001802,"inclination_deg":87.8974,"raan_deg":2.2248,"arg_perigee_deg":99.1309,"mean_anomaly_deg":261.0022,"bstar":0.0011282,"rev_number":31509,"period_min":109.80504550341,"perigee_km":1216.3208693223,"apogee_km":1219.0584052424,"semimajor_km":7595.8266372824,"source":"CELESTRAK","updated_at":"2026-09-20T09:00:44.554235Z"}}}